GFSFLT2_sfc_dewp_273.txt.gz
Dewpoint
30 31 32 30 30 26 29 36 39 37 37 41 44 47 51 44 47 48 55 57 59 61 62 63 65 67 70 71 72 72 71 71
29 30 31 37 30 23 25 34 34 36 39 38 43 48 52 47 46 51 54 59 60 61 62 63 64 68 70 71 71 71 70 73
23 27 25 21 24 32 28 38 35 34 42 43 41 44 45 47 48 51 55 57 59 60 62 62 64 68 70 70 70 70 70 72
21 19 19 17 17 19 27 29 34 32 37 37 35 39 39 45 48 52 56 57 58 60 61 61 63 68 68 70 70 70 71 72
20 22 17 15 20 40 14 20 22 21 33 35 34 35 39 44 52 54 56 57 58 60 60 61 63 68 69 69 68 70 71 71
18 22 20 21 17 17 18 14 18 23 29 30 36 40 35 51 54 55 56 56 57 59 60 61 63 66 68 68 69 70 70 69
21 17 15 19 17 20 16 16 24 19 26 30 42 41 37 36 53 53 57 57 57 58 60 62 65 66 68 68 71 71 70 68
23 21 20 20 19 16 17 16 19 16 16 30 42 42 41 37 47 56 57 57 57 59 61 63 65 66 68 69 71 70 71 67
23 28 24 22 20 18 21 20 17 20 35 33 36 39 40 41 41 51 57 57 59 60 61 63 65 67 67 69 71 70 70 67
31 38 27 27 29 31 41 44 44 45 47 48 53 55 56 56 55 50 53 60 60 63 62 64 67 67 66 71 71 70 68 66
30 32 29 28 36 35 37 46 48 49 50 50 52 55 56 56 56 55 55 57 64 65 64 67 68 69 69 70 70 69 67 67
32 31 30 37 42 41 37 46 50 50 52 52 53 51 56 56 59 61 68 69 61 64 65 68 68 71 70 70 70 68 68 67
37 33 33 46 47 47 36 48 50 51 51 52 51 55 58 57 64 68 69 70 68 66 64 65 65 63 60 69 68 69 68 68
39 35 39 48 48 48 50 50 52 52 51 51 52 51 59 58 62 68 69 69 66 64 64 65 65 63 61 64 68 68 68 67
43 45 50 50 48 50 51 52 51 50 52 53 52 51 59 57 65 68 68 68 67 63 63 64 62 62 63 63 68 67 67 67
43 49 46 50 53 53 51 49 51 52 55 56 55 52 57 61 66 67 67 66 66 64 62 62 63 64 62 64 66 66 66 67
48 55 53 55 55 53 53 52 53 60 64 64 64 63 63 64 63 66 66 67 66 65 64 64 64 62 62 63 67 66 66 66
52 54 56 53 55 54 54 53 59 64 64 65 64 65 65 65 64 66 66 65 65 65 64 64 64 65 66 67 66 65 65 65
52 53 52 53 52 53 54 55 63 63 64 64 65 64 64 65 65 64 65 65 65 65 66 66 66 65 66 66 66 65 64 64

GFSFLT2_sfc_dewp_276.txt.gz
Dewpoint
27 31 30 30 28 30 34 38 33 36 37 37 46 46 46 48 49 55 57 57 58 60 62 64 68 69 69 69 70 71 70 71
24 30 33 29 29 22 27 31 34 33 37 37 40 44 44 47 49 52 57 58 60 61 62 65 68 69 69 69 70 71 71 71
21 24 25 18 23 22 28 34 32 29 37 43 39 44 47 46 47 52 57 59 61 62 62 64 66 68 69 70 70 70 70 71
19 20 19 17 16 19 19 20 33 32 33 37 41 43 45 48 49 53 58 59 61 62 62 63 66 68 69 70 70 70 69 71
15 16 17 14 15 17 20 20 18 21 31 34 35 38 45 48 51 56 57 59 60 61 61 62 66 68 68 69 69 69 71 71
15 16 19 17 16 15 12 12 14 22 25 28 36 45 43 50 54 57 57 58 59 61 61 61 65 67 68 69 69 70 71 71
19 20 20 19 21 20 13 12 12 14 25 26 37 47 51 52 53 53 55 57 59 60 60 61 64 67 68 68 69 70 70 70
14 19 25 19 20 19 17 19 17 19 21 28 41 42 50 52 52 48 49 56 58 59 60 61 63 66 67 68 69 70 69 68
21 23 25 20 24 33 44 44 41 43 44 51 53 53 52 51 50 52 52 56 57 58 59 60 62 65 67 68 70 69 69 67
22 33 23 25 44 46 46 47 48 48 50 53 54 54 54 55 54 54 56 58 57 58 59 60 62 65 67 68 69 69 68 66
26 27 27 35 41 36 46 47 49 50 50 52 53 54 55 57 65 66 67 68 64 60 61 66 66 64 63 62 61 62 62 66
30 27 26 37 45 47 47 46 50 50 51 50 51 50 54 60 68 68 67 65 66 65 65 63 64 64 62 61 62 62 62 64
35 30 37 45 47 49 30 41 51 50 51 50 49 51 54 66 68 68 66 64 64 64 63 64 64 64 62 61 59 62 64 66
36 34 39 47 46 43 49 50 50 49 49 51 51 52 57 67 67 67 66 64 64 63 63 64 64 64 61 59 60 61 65 67
39 40 46 48 48 49 50 49 49 48 53 57 59 58 66 66 66 65 63 63 62 63 62 62 62 60 59 60 62 62 67 66
43 49 49 51 51 50 49 48 56 62 63 64 63 65 66 66 65 65 64 63 62 61 61 61 61 60 60 61 63 65 65 66
50 52 52 53 52 52 52 53 64 64 64 64 64 64 64 66 65 65 64 63 63 62 61 61 61 61 61 62 64 63 64 64
49 52 51 51 52 53 51 62 64 63 62 64 65 64 64 65 64 65 65 64 62 62 62 62 62 63 63 63 65 64 63 63
52 52 50 49 52 53 59 63 64 64 64 64 64 64 64 63 63 61 62 63 62 62 63 63 63 64 65 66 65 64 63 64

GFSFLT2_sfc_dewp_279.txt.gz
Dewpoint
29 34 37 35 29 31 35 37 32 35 37 38 44 44 48 46 50 52 50 57 58 58 62 63 66 68 68 68 68 70 70 70
20 31 30 31 30 28 28 32 31 33 34 35 38 42 44 45 48 54 57 57 58 60 62 63 67 68 68 69 69 70 70 70
20 23 27 24 25 26 30 32 30 26 33 41 39 41 41 44 47 51 57 58 59 61 62 64 67 68 69 69 70 70 70 70
15 20 21 18 19 23 16 22 31 29 29 34 40 39 43 43 45 51 57 59 61 61 63 66 67 68 68 69 69 70 70 70
15 17 17 14 16 21 19 22 31 25 24 34 37 40 44 45 47 52 58 60 61 61 62 64 66 67 68 69 69 69 70 70
15 15 19 17 19 15 13 13 15 21 27 26 34 38 41 46 49 55 58 60 61 61 61 63 65 67 68 69 69 69 70 70
17 20 20 19 19 18 13 12 12 13 24 25 29 38 46 44 51 57 57 59 60 60 61 61 64 66 67 68 69 69 70 70
15 18 28 21 30 34 34 23 25 21 27 48 44 51 51 50 53 55 56 58 59 60 61 61 62 66 66 67 68 69 69 70
13 19 22 22 36 45 46 47 43 43 48 52 52 53 52 49 51 52 54 52 56 59 60 61 62 66 67 67 64 64 66 67
18 31 25 28 46 47 47 48 48 49 51 53 53 55 59 60 61 64 65 63 60 58 59 62 65 65 62 62 62 63 63 64
25 23 28 35 42 38 44 46 49 49 49 50 53 54 60 67 68 67 65 65 66 67 62 66 64 62 62 62 63 63 63 63
30 25 25 34 44 48 47 45 50 50 50 49 49 47 52 67 67 65 64 64 64 64 64 63 62 63 62 62 63 63 63 63
33 28 35 41 46 45 31 34 50 49 50 49 49 50 59 67 67 66 64 64 63 64 63 63 63 63 62 62 62 62 61 61
34 37 36 46 45 37 43 52 49 48 52 54 55 66 66 66 65 64 63 63 63 62 63 63 63 63 62 60 60 61 63 65
35 35 41 48 46 49 49 48 48 56 61 61 61 65 65 64 63 63 62 61 63 61 61 60 60 59 58 58 60 63 65 65
44 47 49 49 49 48 50 59 63 63 63 65 66 65 64 64 64 62 62 61 61 61 59 58 59 59 58 60 63 64 64 63
50 52 51 51 51 54 62 63 63 64 64 64 65 64 64 63 63 62 62 62 62 61 60 59 59 59 60 61 62 63 64 63
48 51 49 50 51 59 63 62 64 64 63 64 64 64 64 63 64 63 61 61 61 61 61 61 61 63 62 61 63 63 62 62
52 52 49 51 57 63 63 64 64 64 63 63 64 63 63 62 61 60 61 62 62 62 63 63 62 63 64 65 63 62 63 62

GFSFLT2_sfc_dewp_282.txt.gz
Dewpoint
37 36 38 35 34 35 34 35 30 32 35 35 41 45 46 46 48 51 53 56 56 58 59 61 63 65 66 68 67 68 68 70
22 31 28 34 32 29 30 26 28 30 33 34 36 40 45 46 46 55 53 57 58 58 59 61 63 65 67 68 68 68 68 69
19 26 27 29 27 27 30 30 25 23 26 39 38 37 40 42 44 52 57 58 59 59 61 62 66 67 68 68 68 69 69 70
14 20 24 23 26 26 21 23 30 26 27 32 39 40 40 41 43 52 58 58 60 61 63 64 66 68 68 68 69 69 70 71
13 16 18 16 19 20 20 29 31 26 21 32 34 39 42 44 44 50 58 60 61 62 63 65 67 68 68 68 69 70 70 70
13 15 18 20 20 20 14 15 19 23 20 25 32 35 38 42 49 52 59 61 61 61 62 64 66 67 68 68 69 70 70 70
17 19 20 19 21 16 14 15 13 16 23 35 46 42 42 47 52 55 58 60 61 61 62 63 66 67 68 69 69 70 70 70
17 19 24 24 37 36 33 19 25 29 44 50 53 53 51 52 54 55 57 60 62 63 63 63 65 67 68 69 69 69 70 70
21 21 23 26 38 46 47 47 45 47 50 53 58 61 62 53 53 56 59 58 58 60 62 63 64 67 67 68 68 67 66 66
19 30 22 23 46 48 48 48 49 51 53 57 60 63 66 67 65 65 65 65 65 65 62 63 65 67 64 64 64 64 64 64
22 24 31 44 47 44 44 47 51 49 50 52 57 55 61 67 66 65 64 64 65 64 66 65 65 64 63 63 63 63 63 64
29 34 35 42 43 46 45 45 51 50 50 50 52 47 51 67 66 64 64 64 64 64 63 62 63 63 62 62 63 63 64 64
32 28 31 37 46 46 32 33 50 50 51 51 51 51 59 67 65 65 64 64 63 63 62 63 64 63 62 61 60 62 63 64
34 34 34 46 47 43 42 51 50 53 55 54 59 66 65 64 63 62 62 62 63 62 62 62 64 64 61 60 62 63 65 65
33 35 41 49 46 50 50 50 52 57 59 62 65 65 64 63 63 62 61 61 62 61 59 59 60 61 60 61 62 65 64 63
43 48 50 49 50 52 54 57 62 62 62 65 65 65 63 63 62 61 62 61 61 59 58 58 59 60 61 62 64 65 64 64
49 51 51 52 59 63 63 64 64 64 66 66 65 64 63 62 62 61 61 61 60 59 59 59 61 61 61 61 62 63 64 64
46 50 50 52 59 62 63 63 64 64 64 65 64 64 63 62 63 61 61 61 61 61 61 62 64 63 64 64 64 63 63 63
50 51 51 54 63 63 63 64 64 63 63 63 63 63 63 62 62 60 61 61 62 62 61 60 60 60 62 63 63 62 61 61

GFSFLT2_sfc_dewp_285.txt.gz
Dewpoint
37 40 38 36 37 34 34 36 32 32 36 37 41 43 44 45 48 47 49 52 55 58 61 62 63 65 66 68 69 70 69 72
26 31 32 36 36 32 35 29 23 25 33 30 37 41 44 46 47 50 54 56 57 58 59 62 63 65 66 68 68 69 69 70
21 28 28 33 32 32 33 31 25 20 21 42 42 40 41 43 46 48 55 56 59 59 60 61 62 64 67 67 68 67 67 69
19 20 26 31 32 32 30 32 32 29 20 34 37 37 42 43 45 48 57 58 59 61 61 62 63 64 65 67 66 68 69 71
17 18 21 19 25 25 27 30 35 24 21 32 42 46 44 42 46 50 56 60 61 61 63 64 64 66 66 67 68 68 71 71
18 22 24 23 19 25 22 23 31 29 23 28 47 49 47 50 49 49 56 60 61 62 64 66 68 69 69 69 69 71 70 71
20 19 20 20 20 21 20 22 20 22 24 45 52 53 52 53 52 54 55 59 61 62 64 67 68 70 70 70 71 71 71 71
21 18 21 29 27 18 18 19 28 26 46 54 58 58 54 55 55 55 57 59 61 64 65 66 67 69 70 71 71 71 72 71
24 21 30 29 37 37 43 32 37 38 50 56 59 61 64 62 62 64 65 65 65 64 64 66 67 69 69 70 71 72 72 71
25 30 22 35 46 48 49 50 50 51 55 59 61 64 64 64 64 64 64 64 65 65 67 68 66 68 69 70 72 71 69 68
29 25 40 46 48 47 45 49 52 55 58 59 58 55 62 66 65 64 64 64 65 64 66 67 67 68 68 68 68 68 68 67
39 35 34 40 48 46 48 44 50 50 52 55 54 43 50 66 65 64 64 65 65 64 64 64 66 67 66 66 66 65 65 66
34 32 34 39 47 47 39 41 51 50 51 54 51 53 63 66 64 64 64 65 65 64 64 65 66 66 65 63 62 63 64 65
38 38 31 45 48 44 48 53 52 53 54 55 58 64 66 63 63 62 63 64 65 65 66 67 67 65 62 62 64 66 66 66
36 36 48 53 50 50 52 55 55 56 56 60 63 65 64 63 62 62 63 62 63 63 63 63 64 64 64 66 67 67 64 64
47 50 50 51 52 52 53 55 58 58 59 61 63 64 63 62 62 62 61 61 60 60 61 61 63 64 64 65 67 67 66 66
51 52 52 53 53 54 59 60 61 62 63 64 64 64 64 62 61 61 62 62 61 61 62 64 65 65 63 64 65 65 66 66
45 54 59 57 60 61 61 62 63 64 66 66 65 64 63 62 63 63 63 64 63 63 62 62 63 63 65 65 65 64 64 63
53 54 54 59 62 62 62 63 63 64 66 65 65 64 62 62 63 61 62 63 62 62 62 62 62 61 61 65 66 64 62 64